ATLAS 5 CENTAUR DEB, 44644

Orbit data source: Space-Track

ATLAS 5 CENTAUR DEB, 44644 is space debris in HEO originally from a launch on Wed, 17 Oct 2018 UTC launched from the Air Force Eastern Test Range (AFETR). Debris objects in space refer to the collection of defunct objects orbiting the Earth. Examples of debris include non-operational satellites, rocket bodies, and fragments generated from explosions, collisions, or faulty payload assembly.

Loading next visibility...
Identifier
44644, 2018-079E
Orbit
HEO
Country
Flag of USUS
Related business
Flag of USUnited Launch Alliance/Lockheed Martin (US)
Manufacturer
ULA Decatur
Mission
Spacecraft
Bus & Motor
Unknown
Mass
Unknown
Launch date (UTC)
2018-10-17 (7 years ago)
Launch vehicle
Unknown
Launch site
Air Force Eastern Test Range (AFETR)
Object type
Payload
Rocket body
Debris
Shape & HBR
Unknown shape, 1.1 m
Radar Cross Section
Medium (>0.1 m² and <1 m²)

Expand to show TLE details & history
Last TLE update: 3 days ago

TLE from 3 days ago
0 ATLAS 5 CENTAUR DEB
1 44644U 18079E   25299.41943563 -.00000127  00000-0  00000-0 0  9990
2 44644  12.8468  42.8299 4522521 314.4294  16.5107  1.94053413 46454
Epoch: 2025-10-26T10:03Z
TLE epoch observation values (Epoch: 2025-10-26T10:03:59.238Z)
Latitude
-0.00006°
Longitude
-143.24398°
Altitude
10,010.075 km
Speed
5.828 km/s
True Right ascension
02h 51m 09s
True Declination
0° 00' 00"
Sunlit
Object was in full shadow at epoch
Visualization orbit readout
Latitude
Unknown
Longitude
Unknown
Altitude
Unknown
Speed
Unknown
Apparent Right ascension
Unknown
Apparent Declination
Unknown
Sunlit
N/A
Visualization observer readout
Local Sidereal Time
20:56:08
Azimuth
Unknown
Elevation
Unknown
Doppler factor
Unknown
Orbital elements
Apogee altitude
33,055.224 km
Perigee altitude
8,494.997 km
Semi-major axis
27,153.247 km
Eccentricity
0.45225
Inclination
12.8468°
RAAN
42.8299°
Arg. of periapsis
314.4294°
True anomaly
45.85068°
Mean anomaly
16.5107°
Eccentric anomaly
29.12098°
Mean motion
0.48508 °/min
Orbital period
742.15 mins
BSTAR
0
Loading maneuver chart data...
Computing Atmospheric mass density...

Documentation

Showing up to 5 results
|